Waarnemingen

Advertentie
Mijn weer
Jerez De La Frontera aeropuert, Spanje (8451): temperatuur & dauwpunt: 14.08.2018 01:00:00 - 20.08.2018 01:00:00 (CEST)Jerez De La Frontera aeropuert, Spanje (8451): windsnelheid: 14.08.2018 01:00:00 - 20.08.2018 01:00:00 (CEST)Jerez De La Frontera aeropuert, Spanje (8451): windrichting: 14.08.2018 01:00:00 - 20.08.2018 01:00:00 (CEST)Jerez De La Frontera aeropuert, Spanje (8451): luchtdruk: 14.08.2018 01:00:00 - 20.08.2018 01:00:00 (CEST)Jerez De La Frontera aeropuert, Spanje (8451): zicht: 14.08.2018 01:00:00 - 20.08.2018 01:00:00 (CEST)
Datum & Tijd tt [°C] td [°C] ff [km/u] ff [kn] dd ppp [hPa] vv [km]
20.08.2018 01:00:00 24,1 16,4 0 0 N 1015,7 10
20.08.2018 00:00:00 23,6 15,8 4 2 - 1015,4 10
19.08.2018 23:00:00 24,8 15,9 4 2 - 1015,2 10
19.08.2018 22:00:00 26,9 16,2 5 3 ZO 1014,6 10
19.08.2018 21:00:00 29,4 17,6 5 3 ZO 1014,1 10
19.08.2018 20:00:00 32,4 17,2 15 8 ZO 1013,7 10
19.08.2018 19:00:00 34,2 17,3 15 8 O 1013,5 10
19.08.2018 18:00:00 34,9 18,2 15 8 ZZO 1013,5 10
19.08.2018 17:00:00 35,2 19,2 16 9 ZZO 1013,8 10
19.08.2018 16:00:00 35,5 18,1 16 9 OZO 1014,2 10
19.08.2018 15:00:00 34,5 17,7 21 11 ZO 1014,4 10
19.08.2018 14:00:00 34,4 18,4 21 11 O 1014,6 10
19.08.2018 13:00:00 33,6 18,7 18 10 O 1015,0 10
19.08.2018 12:00:00 31,6 18,7 26 14 O 1015,3 10
19.08.2018 11:00:00 30,5 18,5 24 13 O 1015,0 10
19.08.2018 10:00:00 28,6 18,7 18 10 O 1014,9 10
19.08.2018 09:00:00 26,4 18,2 18 10 ONO 1014,7 10
19.08.2018 08:00:00 24,6 16,6 18 10 ONO 1014,7 10
19.08.2018 07:00:00 23,6 16,2 11 6 NO 1014,6 10
19.08.2018 06:00:00 24,1 15,6 11 6 ONO 1014,6 10
19.08.2018 05:00:00 25,2 15,2 16 9 O 1014,4 10
19.08.2018 04:00:00 21,7 15,1 2 1 - 1014,1 10
19.08.2018 03:00:00 21,4 15,2 0 0 N 1014,3 10
19.08.2018 02:00:00 22,7 15,8 5 3 O 1014,1 10
19.08.2018 01:00:00 23,6 16,4 8 4 O 1014,3 10
19.08.2018 00:00:00 25,0 17,0 8 4 ZZO 1014,2 10
18.08.2018 23:00:00 25,5 17,9 5 3 ZZO 1014,0 10
18.08.2018 22:00:00 27,7 17,8 5 3 Z 1013,4 10
18.08.2018 21:00:00 30,2 18,2 9 5 Z 1012,8 10
18.08.2018 20:00:00 33,1 17,8 13 7 Z 1012,3 10
18.08.2018 19:00:00 35,0 17,2 21 11 OZO 1012,0 10
18.08.2018 18:00:00 36,0 17,6 18 10 ZO 1012,1 10
18.08.2018 17:00:00 36,5 18,3 16 9 ZO 1012,5 10
18.08.2018 16:00:00 36,1 17,0 16 9 OZO 1013,2 10
18.08.2018 15:00:00 35,7 17,5 15 8 OZO 1013,8 10
18.08.2018 14:00:00 34,5 18,1 16 9 O 1014,3 10
18.08.2018 13:00:00 33,7 18,8 16 9 O 1015,0 10
18.08.2018 12:00:00 32,2 18,8 16 9 O 1015,2 10
18.08.2018 11:00:00 30,5 19,0 16 9 O 1014,9 10
18.08.2018 10:00:00 28,2 18,4 5 3 - 1015,1 10
18.08.2018 09:00:00 23,0 17,1 8 4 O 1015,1 10
18.08.2018 08:00:00 19,4 15,7 5 3 O 1014,8 10
18.08.2018 07:00:00 18,3 16,3 4 2 - 1014,7 10
18.08.2018 06:00:00 18,4 16,9 5 3 NO 1014,5 10
18.08.2018 05:00:00 19,0 17,5 4 2 O 1014,7 10
18.08.2018 04:00:00 20,2 17,9 2 1 - 1014,7 10
18.08.2018 03:00:00 20,7 17,9 4 2 - 1014,7 10
18.08.2018 02:00:00 21,2 18,4 4 2 - 1015,2 10
18.08.2018 01:00:00 22,2 19,2 2 1 NNW 1015,4 10
18.08.2018 00:00:00 24,5 19,3 4 2 - 1015,2 10
17.08.2018 23:00:00 25,3 18,5 5 3 W 1014,8 10
17.08.2018 22:00:00 26,7 18,0 8 4 WZW 1014,3 10
17.08.2018 21:00:00 28,5 18,6 11 6 WZW 1013,7 10
17.08.2018 20:00:00 31,3 19,0 15 8 W 1013,3 10
17.08.2018 19:00:00 33,5 19,6 18 10 NW 1012,9 10
17.08.2018 18:00:00 34,4 20,0 16 9 NW 1013,1 10
17.08.2018 17:00:00 34,3 20,0 18 10 WNW 1013,8 10
17.08.2018 16:00:00 34,2 18,6 5 3 - 1014,4 10
17.08.2018 15:00:00 33,1 18,8 8 4 - 1015,4 10
17.08.2018 14:00:00 31,3 19,0 8 4 O 1015,9 25
17.08.2018 13:00:00 29,7 18,8 4 2 - 1016,3 10
17.08.2018 12:00:00 27,7 18,5 5 3 - 1016,7 10
17.08.2018 11:00:00 25,8 18,2 4 2 - 1016,7 10
17.08.2018 10:00:00 22,7 19,0 4 2 - 1016,8 10
17.08.2018 09:00:00 19,0 16,2 0 0 N 1016,5 10
17.08.2018 08:00:00 16,2 14,7 0 0 N 1016,4 10
17.08.2018 07:00:00 16,8 15,1 2 1 - 1016,0 10
17.08.2018 06:00:00 16,6 14,9 4 2 - 1016,0 10
17.08.2018 05:00:00 16,8 15,5 0 0 N 1016,2 10
17.08.2018 04:00:00 17,1 15,4 4 2 - 1016,6 10
17.08.2018 03:00:00 17,8 16,0 2 1 - 1017,0 10
17.08.2018 02:00:00 18,4 15,7 5 3 WNW 1017,0 10
17.08.2018 01:00:00 18,8 15,8 2 1 - 1017,2 10
17.08.2018 00:00:00 20,0 16,5 0 0 N 1016,8 10
16.08.2018 23:00:00 20,9 16,7 5 3 WZW 1016,6 10
16.08.2018 22:00:00 21,9 16,4 8 4 W 1016,2 10
16.08.2018 21:00:00 23,7 16,2 13 7 W 1015,5 10
16.08.2018 20:00:00 26,4 16,6 13 7 W 1015,1 10
16.08.2018 19:00:00 27,4 16,7 18 10 W 1015,2 10
16.08.2018 18:00:00 28,6 17,2 16 9 ZW 1015,4 10
16.08.2018 17:00:00 29,4 17,6 16 9 ZW 1015,7 10
16.08.2018 16:00:00 28,7 17,9 9 5 - 1016,2 10
16.08.2018 15:00:00 27,7 17,3 5 3 - 1016,9 10
16.08.2018 14:00:00 26,6 17,6 5 3 ZZW 1017,3 10
16.08.2018 13:00:00 25,2 17,3 8 4 Z 1017,7 10
16.08.2018 12:00:00 24,3 17,2 5 3 Z 1017,8 10
16.08.2018 11:00:00 23,5 17,4 5 3 Z 1017,6 10
16.08.2018 10:00:00 22,4 17,1 8 4 Z 1017,4 10
16.08.2018 09:00:00 21,4 17,2 5 3 ZZO 1017,1 10
16.08.2018 08:00:00 20,9 17,4 5 3 ZO 1016,8 10
16.08.2018 07:00:00 20,8 17,4 5 3 ZO 1016,8 10
16.08.2018 06:00:00 20,7 17,7 5 3 ZZO 1016,6 10
16.08.2018 05:00:00 20,4 17,6 5 3 ZO 1016,7 10
16.08.2018 04:00:00 19,9 17,5 5 3 ZZO 1016,8 10
16.08.2018 03:00:00 19,4 17,4 5 3 Z 1016,9 10
16.08.2018 02:00:00 18,9 17,1 5 3 Z 1016,9 10
16.08.2018 01:00:00 18,8 16,9 8 4 Z 1016,7 10
16.08.2018 00:00:00 19,3 17,2 8 4 ZZO 1016,7 10
15.08.2018 23:00:00 20,2 17,6 5 3 Z 1016,6 10
15.08.2018 22:00:00 20,8 17,6 9 5 ZZW 1016,2 10
15.08.2018 21:00:00 22,6 17,5 15 8 ZW 1015,7 10
15.08.2018 20:00:00 25,0 18,0 18 10 ZW 1015,5 10
15.08.2018 19:00:00 26,6 17,9 22 12 ZW 1015,4 10
15.08.2018 18:00:00 27,8 18,0 21 11 ZW 1015,6 10
15.08.2018 17:00:00 28,8 18,6 21 11 ZW 1015,8 10
15.08.2018 16:00:00 28,8 18,8 22 12 ZZW 1016,1 10
15.08.2018 15:00:00 28,6 18,9 24 13 ZZW 1016,6 10
15.08.2018 14:00:00 28,0 18,8 26 14 ZZW 1017,0 10
15.08.2018 13:00:00 27,5 19,0 21 11 ZZW 1017,3 10
15.08.2018 12:00:00 26,5 18,7 22 12 ZZW 1017,4 10
15.08.2018 11:00:00 24,5 18,1 16 9 Z 1017,3 10
15.08.2018 10:00:00 21,9 18,1 18 10 Z 1017,2 10
15.08.2018 09:00:00 20,2 18,3 8 4 ZZO 1017,0 10
15.08.2018 08:00:00 19,6 18,4 9 5 ZZO 1016,6 10
15.08.2018 07:00:00 19,2 18,5 9 5 ZZO 1016,2 10
15.08.2018 06:00:00 17,0 16,5 4 2 ZO 1016,2 10
15.08.2018 05:00:00 15,4 14,3 2 1 - 1016,2 10
15.08.2018 04:00:00 16,6 16,3 5 3 Z 1016,2 10
15.08.2018 03:00:00 16,4 15,4 0 0 N 1016,4 10
15.08.2018 02:00:00 17,0 15,7 4 2 OZO 1016,8 10
15.08.2018 01:00:00 19,1 17,0 4 2 - 1016,5 10
15.08.2018 00:00:00 20,6 17,8 9 5 ZW 1016,8 10
14.08.2018 23:00:00 21,9 18,2 13 7 WZW 1016,8 10
14.08.2018 22:00:00 23,5 17,1 13 7 WZW 1016,3 10
14.08.2018 21:00:00 26,3 16,0 13 7 WZW 1015,6 10
14.08.2018 20:00:00 30,0 14,5 15 8 WZW 1015,3 10
14.08.2018 19:00:00 31,6 15,5 15 8 WZW 1015,5 10
14.08.2018 18:00:00 32,2 15,7 15 8 W 1015,8 10
14.08.2018 17:00:00 32,4 17,5 13 7 ZW 1016,0 10
14.08.2018 16:00:00 31,8 18,7 18 10 ZW 1016,3 10
14.08.2018 15:00:00 31,0 19,3 15 8 ZZW 1016,7 10
14.08.2018 14:00:00 29,7 19,5 15 8 ZZW 1017,2 10
14.08.2018 13:00:00 29,2 20,3 15 8 Z 1017,2 10
14.08.2018 12:00:00 27,7 20,5 15 8 Z 1017,4 10
14.08.2018 11:00:00 25,8 20,3 15 8 Z 1017,2 10
14.08.2018 10:00:00 23,9 20,1 15 8 ZZO 1017,0 8
14.08.2018 09:00:00 21,4 19,4 15 8 Z 1016,6 8
14.08.2018 08:00:00 20,9 19,7 8 4 Z 1016,2 6
14.08.2018 07:00:00 20,4 19,9 9 5 Z 1015,8 4,0
14.08.2018 06:00:00 19,1 18,8 5 3 Z 1015,3 10
14.08.2018 05:00:00 18,2 17,8 4 2 Z 1015,5 10
14.08.2018 04:00:00 18,3 16,6 2 1 Z 1015,5 10
14.08.2018 03:00:00 19,6 17,9 5 3 Z 1015,7 10
14.08.2018 02:00:00 19,1 17,1 4 2 - 1015,5 10
14.08.2018 01:00:00 20,6 17,8 5 3 ZZO 1015,5 10

tt = temperatuur
td = dauwpunt
ff = windsnelheid
dd = windrichting
ppp = luchtdruk
vv = zicht

Weerstations in de omgeving